sat.trackr.live / text

‹ back to catalog

STARLINK-37843

NORAD 69501 · 2026-131Z

PAYLOAD ACTIVE UNKNOWN

§ Identity

Operator
Country
US
Launch date
2026-06-11
Launch site
AFWTR
Launch vehicle
Mass (kg)
RCS (m²)

Purposes: comms

External: N2YO · Heavens-Above · Gunter

§ Orbital elements

Epoch: 2026-09-19T08:03:40.599648Z

Period
93.90 min
Inclination
97.2874°
Eccentricity
0.0000488
Mean motion
15.33466449 rev/d
Perigee alt
465.1 km
Apogee alt
465.8 km
Semi-major
6,843.6 km
B*
1.2456e-3
RAAN
283.2895°
Arg perigee
214.6592°
Mean anomaly
145.4619°
Rev number
1,546

§ Raw data

STARLINK-378431 69501U 26131Z   26262.33588657  .00040380  00000+0  12456-2 0  99912 69501  97.2874 283.2895 0000488 214.6592 145.4619 15.33466449 15467

JSON: /api/v1/satellites/69501 · /tle

For live sub-satellite position, see the globe view (requires WebGL).

§ Visibility from observer

Set your observer location to see the next 7 days of passes ≥ 10°. The values pass through the URL so the page stays shareable.

No JS? Fill the form by hand. The geolocation button needs JavaScript.